TimeEST,TemperatureF,Dew PointF,Humidity,Sea Level PressureIn,VisibilityMPH,Wind Direction,Wind SpeedMPH,Gust SpeedMPH,PrecipitationIn,Events,Conditions,WindDirDegrees,DateUTC
12:53 AM,34.0,30.9,89,30.38,6.0,South,5.8,-,N/A,,Overcast,190,2005-01-09 05:53:00
1:53 AM,34.0,30.9,89,30.34,7.0,SSE,4.6,-,N/A,,Overcast,160,2005-01-09 06:53:00
2:21 AM,33.8,30.2,87,30.31,6.0,South,5.8,-,N/A,,Overcast,170,2005-01-09 07:21:00
2:53 AM,34.0,30.9,89,30.33,7.0,South,6.9,-,N/A,,Overcast,170,2005-01-09 07:53:00
3:53 AM,34.0,30.9,89,30.34,6.0,South,5.8,-,N/A,,Overcast,190,2005-01-09 08:53:00
4:53 AM,34.0,30.9,89,30.33,5.0,South,5.8,-,N/A,,Overcast,170,2005-01-09 09:53:00
5:53 AM,34.0,32.0,92,30.31,6.0,SSE,5.8,-,N/A,,Overcast,160,2005-01-09 10:53:00
6:53 AM,34.0,32.0,92,30.30,7.0,South,8.1,-,N/A,,Overcast,170,2005-01-09 11:53:00
7:53 AM,35.1,32.0,89,30.30,8.0,South,10.4,-,N/A,,Overcast,170,2005-01-09 12:53:00
8:53 AM,35.1,33.1,92,30.29,6.0,SSE,9.2,-,N/A,,Overcast,160,2005-01-09 13:53:00
9:53 AM,36.0,33.1,89,30.29,6.0,South,10.4,-,N/A,,Overcast,170,2005-01-09 14:53:00
10:53 AM,37.9,35.1,89,30.27,6.0,South,9.2,-,N/A,,Overcast,170,2005-01-09 15:53:00
11:53 AM,41.0,36.0,82,30.23,8.0,South,11.5,-,N/A,,Partly Cloudy,170,2005-01-09 16:53:00
12:53 PM,45.0,37.0,74,30.18,10.0,SSE,10.4,-,N/A,,Clear,160,2005-01-09 17:53:00
1:53 PM,46.9,37.0,68,30.14,10.0,South,10.4,-,N/A,,Clear,170,2005-01-09 18:53:00
2:53 PM,48.0,37.9,68,30.10,10.0,South,9.2,-,N/A,,Clear,170,2005-01-09 19:53:00
3:53 PM,50.0,35.1,57,30.09,10.0,South,9.2,-,N/A,,Clear,190,2005-01-09 20:53:00
4:53 PM,50.0,34.0,54,30.06,10.0,SSW,12.7,19.6,N/A,,Clear,200,2005-01-09 21:53:00
5:53 PM,46.0,34.0,63,30.05,10.0,South,8.1,-,N/A,,Clear,180,2005-01-09 22:53:00
6:53 PM,46.0,35.1,66,30.06,10.0,SSW,8.1,-,N/A,,Clear,210,2005-01-09 23:53:00
7:53 PM,45.0,36.0,71,30.07,10.0,SSW,10.4,-,N/A,,Clear,210,2005-01-10 00:53:00
8:53 PM,45.0,37.0,74,30.07,10.0,SW,15.0,-,N/A,,Clear,220,2005-01-10 01:53:00
9:53 PM,44.1,37.9,79,30.09,10.0,SW,16.1,-,N/A,,Clear,230,2005-01-10 02:53:00
10:53 PM,42.1,39.0,89,30.09,10.0,SW,11.5,-,N/A,,Clear,230,2005-01-10 03:53:00
11:12 PM,42.8,39.2,87,30.08,10.0,SW,11.5,-,N/A,,Mostly Cloudy,220,2005-01-10 04:12:00
11:44 PM,42.8,39.2,87,30.09,9.0,WSW,10.4,-,N/A,,Overcast,240,2005-01-10 04:44:00
11:53 PM,43.0,39.9,89,30.11,10.0,WSW,11.5,18.4,N/A,,Overcast,240,2005-01-10 04:53:00